Flag for U.S.A. Weather past 2 weeks in Bellingham, Washington, U.S.A.

Now
50 °F

Light rain. Overcast.


Feels Like: 49 °F
Forecast: 46 / 51 °F
Wind: 3 mph from North

Location: Bellingham International Airport

Current Time: Dec 20, 2014 at 2:48:51 PM

Latest Report: Dec 20, 2014 at 1:53 PM


Visibility: 9 mi

Pressure: 29.48 "Hg

Humidity: 80%

Dew point: 44 °F

Location of BellinghamLocation

Historic Weather in Bellingham — Graph

°F

Bellingham temperature yesterday

Maximum temperature yesterday: 50 °F (at 1:53 AM)
Minimum temperature yesterday: 47 °F (at 8:53 AM)
Average temperature yesterday: 49 °F

Past Weeks' High & Low Weather Summary

 TemperatureHumidityPressure
High66 °F (Dec 10, 10:53 AM)100% (Dec 7, 12:00 AM)30.27 "Hg (Dec 7, 12:00 AM)
Low30 °F (Dec 15, 6:53 AM)45% (Dec 10, 10:53 AM)29.16 "Hg (Dec 11, 5:53 PM)
Average47 °F77%29.85 "Hg
* Reported Dec 5 1:00 PM — Dec 20 1:53 PM, Bellingham, Weather by CustomWeather, © 2014

Note: Actual official high and low records may vary slightly from our data, if they occured in-between our weather recording intervals... More about our weather records

Advertising

Bellingham weather history for previous 24 hours

 ConditionsComfort  
Time TempWeatherWind HumidityBarometerVisibility
1:53 PM
Dec 20
50 °FLight rain. Overcast.3 mph80%29.48 "Hg9 mi
12:53 PM51 °FLight rain. Mostly cloudy.14 mph71%29.49 "Hg10 mi
11:53 AM48 °FMostly cloudy.9 mph77%29.54 "Hg10 mi
10:53 AM46 °FMostly cloudy.7 mph83%29.58 "Hg10 mi
9:53 AM45 °FMostly cloudy.3 mph86%29.62 "Hg10 mi
8:53 AM45 °FMore clouds than sun.No wind82%29.62 "Hg10 mi
7:53 AM44 °FOvercast.7 mph89%29.65 "Hg10 mi
6:53 AM47 °FLight rain. Overcast.7 mph80%29.64 "Hg8 mi
5:53 AM49 °FLight rain. Mostly cloudy.12 mph66%29.65 "Hg10 mi
4:53 AM50 °FLight rain. Mostly cloudy.13 mph59%29.67 "Hg10 mi
3:53 AM49 °FOvercast.13 mph61%29.71 "Hg10 mi
2:53 AM47 °FMostly cloudy.5 mph71%29.75 "Hg10 mi
1:53 AM48 °FMostly cloudy.21 mph66%29.78 "Hg10 mi
12:53 AM49 °FOvercast.16 mph64%29.82 "Hg10 mi
11:53 PM
Dec 19
50 °FMostly cloudy.17 mph59%29.84 "Hg10 mi
10:53 PM50 °FPassing clouds.15 mph59%29.85 "Hg10 mi
9:53 PM49 °FClear.12 mph64%29.85 "Hg10 mi
8:53 PM49 °FClear.20 mph64%29.88 "Hg10 mi
7:53 PM49 °FPassing clouds.16 mph64%29.89 "Hg10 mi
6:53 PM49 °FPassing clouds.15 mph66%29.91 "Hg10 mi
5:53 PM50 °FOvercast.14 mph63%29.92 "Hg10 mi
4:53 PM49 °FPassing clouds.15 mph69%29.92 "Hg10 mi
3:53 PM50 °FOvercast.13 mph68%29.93 "Hg10 mi
2:53 PM50 °FOvercast.14 mph71%29.92 "Hg10 mi
Weather by CustomWeather, © 2014

See weather overviewHow to use our weather pages